Theta_e
297 297 297 297 297 297 297 297 297 297 298 298 298 298 299 299 299 299 299 299 300 300 300 300 301 301 302 302 302 302 302 302 302 301 300 301 301 302 302 302 302 301 300 300 300 299 299 298 297 297 297 297 297 297 297 297 297 296 296 295 295 295 295 295 295 294 294 294 294
297 297 297 296 296 297 298 297 298 298 298 299 299 299 299 299 299 299 299 300 300 301 301 301 301 302 302 302 302 302 302 302 302 301 301 301 301 301 301 301 301 300 299 299 299 298 298 298 297 297 296 296 296 296 297 298 298 297 296 296 295 295 295 295 295 295 295 294 294
298 298 298 298 298 298 298 298 298 299 299 299 300 300 300 300 300 300 300 300 301 301 301 301 301 301 302 302 302 302 302 302 301 301 301 301 301 301 301 301 300 299 298 298 298 298 298 298 297 296 296 296 296 296 296 296 297 296 296 295 295 295 295 294 295 295 295 294 294
298 298 298 298 298 298 298 298 299 299 299 300 300 300 300 300 300 300 300 301 301 301 301 301 301 301 301 301 301 301 301 301 301 301 301 301 301 301 300 300 299 299 299 298 298 298 298 298 297 297 296 297 296 296 296 296 296 296 296 296 296 295 295 295 295 295 294 294 294
298 298 298 299 299 299 299 299 299 299 300 300 300 300 300 300 300 300 301 300 300 300 301 301 301 301 301 301 301 301 301 301 299 300 301 300 301 300 300 299 299 298 298 298 298 298 298 298 297 297 297 297 297 296 296 297 296 296 296 296 296 296 295 295 295 294 294 294 294
297 298 299 299 299 299 300 300 300 300 300 300 300 300 300 300 300 300 300 300 300 300 301 300 300 300 300 301 301 301 301 301 300 300 300 300 300 300 300 299 298 298 298 298 298 298 298 298 297 297 297 297 297 297 297 297 297 296 296 296 296 296 296 295 295 295 295 294 294
297 298 298 299 299 299 300 300 300 300 301 300 300 300 300 300 300 300 300 300 300 300 300 299 299 299 300 300 300 300 300 300 300 300 300 300 300 299 299 299 298 298 298 298 298 298 298 298 298 297 296 296 296 297 297 297 297 297 296 296 296 296 296 296 296 295 295 295 294
298 298 298 298 299 299 299 300 300 300 300 300 300 300 300 300 300 300 300 300 300 300 299 299 300 300 300 300 299 299 300 300 300 300 300 300 299 299 299 299 298 298 298 298 298 299 298 298 298 297 297 297 296 297 297 297 297 297 296 295 295 295 295 295 296 296 295 294 294
298 298 298 298 299 299 299 300 300 300 300 300 300 300 300 300 300 300 299 299 299 299 300 300 300 300 299 299 299 299 299 299 299 299 299 299 299 299 299 299 298 299 299 299 299 299 298 298 297 297 297 297 296 296 297 297 297 296 296 295 295 295 295 296 296 295 294 294 294
297 298 298 298 299 299 299 300 300 300 300 300 300 300 300 298 299 299 300 299 299 299 299 299 299 299 299 299 299 299 299 299 299 299 299 299 299 299 299 298 298 298 298 298 298 298 298 297 297 296 296 296 296 296 296 296 296 296 295 295 295 295 295 295 295 294 294 294 294
298 298 298 298 298 298 299 299 299 299 299 299 299 299 299 298 299 299 299 299 299 299 299 299 299 299 298 298 298 298 298 298 298 298 298 298 298 298 298 298 298 298 297 297 297 297 296 296 295 295 295 295 295 295 295 295 295 295 294 294 294 294 294 294 294 294 294 293 294
298 298 298 298 298 298 299 299 298 299 299 299 299 299 299 299 299 299 299 299 299 299 299 299 299 298 298 298 298 297 297 298 298 298 298 298 298 297 297 297 297 297 296 296 297 296 295 295 294 294 294 294 294 294 294 294 294 294 293 293 293 293 293 293 293 293 293 292 292
298 298 298 298 298 298 298 298 298 298 298 298 299 299 299 299 299 298 298 298 298 298 298 298 298 298 298 297 297 297 297 297 298 297 297 297 297 296 296 296 296 296 296 296 296 295 295 294 294 294 293 293 293 294 294 293 293 293 292 292 292 292 292 292 292 292 292 291 291
298 298 298 298 298 298 298 298 298 298 298 298 298 298 298 298 298 298 298 298 297 297 297 298 298 297 297 297 297 297 297 297 297 297 296 296 296 295 295 295 295 295 295 296 296 295 294 294 293 293 293 292 293 293 293 293 292 292 292 291 291 291 291 291 291 291 291 291 290
298 298 298 298 298 298 298 297 297 297 297 298 298 298 298 298 297 297 297 297 297 297 297 297 297 297 297 297 297 297 297 297 297 296 296 295 295 295 295 295 295 295 294 295 294 294 294 293 292 292 292 291 291 292 292 292 292 292 292 291 291 291 290 291 290 290 290 290 290
297 298 298 298 298 298 297 297 297 297 297 297 297 298 297 297 297 297 297 297 297 297 297 297 297 297 297 297 297 297 297 297 296 296 295 295 295 294 294 294 293 293 293 293 293 293 292 292 292 291 291 291 291 291 291 292 292 292 291 291 291 290 290 290 289 289 289 289 289
297 297 297 297 297 297 297 297 297 297 297 297 297 297 297 297 297 296 296 296 296 296 296 296 296 296 296 296 297 297 297 296 296 295 295 294 294 294 294 293 292 292 292 291 291 291 291 292 292 292 291 291 291 291 291 291 291 291 291 290 290 290 289 289 289 288 288 288 287
297 297 297 297 297 297 297 297 297 297 297 297 297 297 297 297 296 296 296 296 296 296 296 296 296 296 296 296 296 296 296 296 295 295 295 294 294 294 293 293 292 292 291 291 291 291 290 291 291 291 291 291 291 291 291 290 290 290 290 290 289 289 289 288 288 288 288 287 287
297 297 297 297 297 297 297 296 296 297 297 297 296 296 296 296 296 296 296 296 296 296 296 295 296 296 296 296 296 295 295 295 295 295 295 294 294 294 293 292 292 292 292 291 291 291 291 291 291 291 291 291 291 291 290 290 290 289 289 289 289 288 288 288 288 288 287 287 287
296 297 297 297 297 297 297 297 297 296 297 297 296 296 296 296 296 296 296 296 295 296 296 295 295 295 295 295 295 295 295 295 295 295 294 294 294 293 293 292 292 292 292 292 292 292 291 291 291 291 291 290 290 290 290 290 289 289 289 289 288 288 288 288 287 287 287 287 287
297 297 297 297 297 297 297 297 297 297 297 296 296 296 296 296 296 295 295 295 295 295 295 295 295 295 294 295 294 294 294 294 295 295 294 294 293 293 292 292 292 292 292 292 292 291 291 291 291 291 291 290 290 289 289 289 289 288 288 288 288 288 288 287 287 287 287 287 286
297 297 297 297 297 297 297 297 297 297 296 296 296 296 296 296 295 295 295 295 295 295 295 294 294 294 294 294 294 294 294 294 295 294 294 293 293 292 292 292 292 292 292 292 291 291 290 291 290 290 290 289 289 289 288 288 288 288 288 288 288 287 287 287 287 287 286 286 286
297 297 297 297 297 297 296 296 297 296 296 296 296 296 296 295 295 295 295 295 295 295 295 295 295 295 294 294 294 294 294 294 294 294 293 293 292 292 292 292 292 292 291 291 291 290 289 289 289 289 289 289 288 288 288 288 288 287 287 287 287 287 286 286 286 286 286 286 286
297 297 297 297 297 297 297 297 296 296 296 296 295 295 295 295 295 295 295 295 295 295 296 296 295 295 294 294 294 294 294 293 293 293 293 292 292 292 292 292 291 292 292 292 289 288 287 287 288 288 288 288 288 288 288 288 288 287 287 286 286 286 286 286 286 286 285 285 285
297 297 297 297 297 297 296 296 296 296 295 295 295 295 295 295 295 295 295 295 296 296 296 295 295 295 294 294 294 294 294 293 292 292 292 291 291 291 291 291 291 292 292 290 287 285 285 285 286 287 287 287 287 288 288 288 288 287 287 286 286 285 285 285 285 285 285 285 285
297 297 297 297 296 296 296 296 296 296 295 295 295 295 294 295 295 295 295 296 296 296 295 295 295 294 294 294 294 294 293 293 292 291 291 291 290 291 291 291 291 292 291 288 286 285 285 285 285 285 286 287 287 287 287 287 287 287 287 286 286 285 285 285 284 284 284 284 284
297 297 297 297 296 296 296 296 296 295 295 295 295 294 295 295 295 296 296 296 295 295 295 294 294 294 293 294 293 293 293 292 292 291 291 290 290 290 290 290 291 291 290 287 285 285 285 285 285 285 286 287 287 287 286 286 287 287 286 286 286 285 285 284 284 284 284 284 284
297 297 297 296 296 296 296 296 295 295 295 295 295 295 295 295 296 296 296 295 294 294 294 294 294 293 293 293 293 293 292 292 291 291 291 290 290 290 290 290 290 290 288 286 285 285 285 285 285 285 285 285 286 286 286 286 286 286 286 285 285 285 284 284 284 283 283 283 283
297 297 296 296 296 296 296 295 295 295 295 295 295 295 295 295 296 295 294 294 294 293 293 293 293 293 293 293 293 292 292 291 291 290 290 290 290 290 289 289 289 288 287 285 285 285 285 285 285 284 284 284 285 285 285 285 285 285 285 285 285 284 284 284 283 283 283 283 283
297 296 296 296 296 296 295 295 295 295 295 295 295 295 295 295 294 294 294 293 293 293 292 293 293 292 292 292 292 292 291 291 290 290 290 289 289 289 289 288 289 288 287 284 285 285 284 284 284 284 283 283 284 284 285 285 285 285 285 285 284 284 284 284 283 283 283 283 282
296 296 296 296 296 296 296 295 295 296 295 296 296 295 295 294 294 293 293 293 292 292 292 292 292 292 292 292 292 291 291 290 290 290 289 289 288 288 288 288 288 288 286 284 284 284 284 284 283 283 283 283 283 284 285 285 285 285 285 285 284 284 284 284 283 283 282 282 281
296 296 296 296 296 296 296 296 296 296 296 296 295 295 294 293 293 293 293 293 292 292 292 292 292 292 291 291 291 290 290 290 289 289 289 288 288 288 288 288 288 287 285 283 283 283 283 283 283 283 282 282 283 284 285 285 285 285 285 285 284 284 284 283 283 282 282 281 280
296 296 296 296 296 296 296 296 296 296 296 295 295 294 293 293 293 293 293 292 292 291 291 291 291 291 291 290 290 290 290 289 289 288 288 288 288 288 288 287 288 286 283 282 282 282 282 282 282 282 282 282 283 284 285 285 285 285 285 284 284 284 283 283 282 281 281 281 280
296 296 296 296 296 296 296 297 297 296 295 294 294 294 294 293 293 293 292 291 291 291 291 292 291 291 290 290 290 289 289 289 289 289 289 288 288 287 287 287 288 285 282 281 281 282 282 282 282 282 282 282 283 284 285 285 285 284 284 284 283 283 283 282 282 281 281 281 280
296 296 296 296 296 296 297 297 297 296 295 294 294 293 293 293 293 292 292 291 291 291 292 292 292 291 291 290 290 289 289 289 289 289 289 288 288 287 287 287 288 284 281 281 281 281 281 282 282 281 282 282 283 284 285 284 284 284 283 283 283 283 282 282 281 281 280 280 280
296 296 296 296 297 297 297 296 295 295 294 294 293 293 293 293 292 292 291 290 290 291 291 291 291 291 290 290 290 289 289 289 289 289 289 288 288 287 287 286 287 285 282 280 281 281 281 281 281 281 281 282 283 284 284 284 283 283 283 282 282 282 282 281 281 281 281 280 280
297 297 297 297 297 297 296 296 295 294 294 293 293 293 293 292 292 292 291 291 291 291 291 291 290 290 289 289 289 289 289 289 288 288 288 288 287 287 286 286 286 285 283 281 280 280 281 281 281 281 281 283 283 283 283 283 282 282 282 282 281 281 281 281 281 281 281 281 280
297 297 297 297 296 296 295 295 295 294 294 293 293 293 293 292 292 292 291 290 290 290 290 290 290 289 289 289 289 289 289 289 288 287 287 287 287 286 286 285 286 286 284 281 280 280 280 281 281 281 281 282 282 282 282 282 281 281 281 281 281 281 281 281 281 281 281 281 280
298 298 297 296 295 295 295 295 294 294 293 293 293 293 292 292 292 291 291 291 291 290 290 289 289 289 289 288 288 288 288 288 288 287 287 287 287 286 285 285 285 285 284 282 280 280 280 280 281 281 281 282 282 281 281 281 281 281 281 280 280 281 281 280 280 280 280 280 279
298 297 296 296 295 295 295 294 294 294 293 293 293 292 292 291 291 291 291 291 291 290 290 289 289 289 289 288 288 288 288 288 288 287 287 287 286 285 284 284 285 285 284 282 281 280 280 280 280 280 281 282 281 281 281 281 280 280 280 280 280 280 280 280 280 280 280 280 280
297 297 296 295 295 295 294 294 293 293 293 293 293 292 291 291 291 291 291 291 291 290 290 289 289 289 288 287 287 287 287 287 287 287 287 286 286 285 284 285 285 285 285 283 281 281 280 280 280 280 281 281 281 281 281 280 280 280 280 280 280 280 280 280 280 280 280 280 280
Wind_Speed
7 6 5 5 4 4 3 3 3 2 3 3 4 4 4 4 4 4 4 4 4 4 4 5 5 5 6 8 8 8 7 7 7 7 7 7 7 7 7 7 7 7 7 7 6 5 4 4 3 2 2 1 1 1 1 1 2 2 2 2 3 3 3 4 4 4 4 5 4
8 7 6 5 4 3 3 3 2 2 3 3 3 4 4 4 4 4 4 4 4 4 5 5 5 6 7 8 8 8 7 7 7 7 7 7 7 7 7 7 7 6 6 6 5 4 4 3 3 2 1 1 1 0 0 0 2 3 3 4 3 4 4 5 5 5 5 6 5
7 7 6 5 5 4 4 3 4 4 4 4 3 3 3 3 4 4 4 4 5 5 5 5 6 7 7 8 8 7 7 7 7 7 7 7 7 7 7 7 6 5 5 5 5 5 4 4 3 2 2 2 2 2 2 1 2 3 4 5 4 4 4 5 5 5 5 5 6
7 7 6 6 6 6 5 4 5 5 5 4 3 3 3 3 3 4 4 5 5 5 5 6 6 6 7 7 8 8 7 7 7 7 7 7 7 7 7 6 6 5 5 5 5 5 5 5 4 3 3 3 4 3 3 3 3 4 4 5 4 5 5 5 5 5 5 5 6
7 6 6 5 6 6 5 5 5 5 4 3 3 3 3 3 3 4 4 4 4 5 5 6 6 6 7 7 8 8 7 6 6 6 7 7 7 7 6 6 5 5 4 4 5 5 5 6 5 4 4 4 4 4 4 4 5 5 5 4 4 5 5 5 5 5 5 6 6
7 6 6 5 6 5 5 5 5 4 3 3 3 4 4 3 4 4 5 5 5 5 6 6 6 6 7 8 8 8 7 7 6 7 7 8 7 6 6 5 4 4 4 4 4 5 5 6 5 4 4 5 5 5 5 6 5 5 5 5 5 5 5 6 5 6 6 7 8
7 7 7 6 6 6 5 5 4 3 3 3 4 4 5 5 5 5 5 5 5 5 5 5 6 7 7 8 8 7 8 7 7 8 8 7 7 6 5 4 4 4 4 4 5 5 5 6 5 5 5 5 5 6 6 6 6 7 7 7 6 6 6 7 6 6 7 9 10
7 7 7 7 7 6 5 5 4 3 3 2 3 4 5 5 6 6 5 5 5 5 5 5 6 7 8 8 7 7 8 8 8 8 7 7 7 6 5 4 4 4 5 5 6 6 6 6 5 5 6 5 5 6 7 8 8 9 9 9 7 7 7 7 7 7 8 10 11
7 7 7 7 6 6 5 4 3 3 3 3 3 3 4 4 5 5 5 5 5 5 5 5 6 7 8 8 8 7 7 7 8 8 7 7 7 6 6 5 6 6 6 6 7 8 8 7 6 6 6 6 6 7 8 9 10 10 10 9 8 8 8 8 8 9 10 11 11
7 7 7 7 6 5 4 3 2 2 2 2 3 3 3 3 4 4 5 4 5 5 5 6 6 7 7 8 8 7 7 7 7 8 8 7 7 7 7 7 7 7 7 7 8 8 9 7 7 7 7 7 8 8 9 9 9 10 9 8 8 9 10 9 10 11 11 11 11
7 7 7 6 5 4 3 3 2 2 2 2 3 3 3 3 4 4 4 5 5 5 6 6 6 7 7 7 7 7 7 7 7 8 8 9 8 8 8 8 9 9 9 9 8 8 8 7 7 8 8 8 8 8 8 8 9 9 9 8 9 10 11 11 11 11 11 12 12
7 6 6 5 4 4 4 3 3 2 2 3 3 3 3 3 4 4 5 5 6 6 6 6 6 6 6 6 7 7 8 8 8 8 9 9 9 9 9 9 9 9 9 9 8 7 6 7 7 8 8 8 7 7 7 8 8 9 9 10 10 11 11 12 12 11 11 12 13
5 5 5 4 4 4 4 4 3 3 3 3 3 3 3 3 4 4 5 5 6 5 5 6 6 6 6 6 7 7 7 8 8 9 9 9 9 9 9 10 9 9 8 7 6 6 6 6 7 8 8 8 7 7 7 8 8 9 10 11 11 11 12 12 12 12 12 13 13
4 4 4 3 3 3 4 4 3 3 3 3 3 3 3 3 3 4 4 5 5 6 5 6 5 5 6 6 7 7 8 8 8 9 9 8 8 8 9 8 8 8 7 5 5 5 6 6 6 7 7 8 8 8 8 8 8 9 10 11 11 12 12 12 13 13 13 13 13
3 3 3 3 3 3 4 4 3 3 3 3 3 3 3 3 3 3 4 5 5 5 5 6 6 6 6 6 7 7 8 8 8 9 9 8 8 8 7 7 6 6 5 5 4 4 5 5 6 6 7 7 8 8 8 9 9 10 10 11 11 12 12 12 13 13 13 13 13
2 2 2 2 3 3 4 4 3 3 3 3 3 3 3 3 3 3 4 5 5 5 5 6 7 7 6 6 7 7 8 8 8 9 9 8 7 6 6 5 5 4 4 4 4 4 4 4 5 6 7 7 8 9 9 10 10 10 11 11 11 12 12 12 13 13 13 13 13
1 2 2 2 3 3 3 4 3 3 3 3 3 3 3 3 3 3 3 4 5 5 6 7 7 7 7 7 7 7 7 8 8 8 8 8 7 5 4 4 3 3 4 4 4 4 4 4 5 6 7 7 8 9 10 10 10 11 11 11 11 12 12 12 12 12 13 13 14
1 2 2 2 3 3 3 3 3 3 3 3 3 3 3 3 3 4 4 4 5 6 7 7 7 7 8 8 8 7 7 8 8 7 7 7 6 4 4 3 3 3 3 4 4 5 5 5 6 6 7 8 8 9 9 10 10 11 11 11 11 12 12 12 12 13 13 13 14
1 2 2 2 3 3 3 3 3 3 3 3 3 3 3 3 4 4 4 4 5 6 7 7 7 7 8 8 8 8 7 7 7 7 6 5 5 4 3 3 3 3 3 3 4 5 5 6 6 7 8 8 9 9 9 10 10 11 11 11 12 12 12 12 13 13 13 14 14
2 2 2 2 3 3 3 3 3 3 3 3 3 3 3 4 4 4 5 5 5 6 7 7 7 8 8 8 8 8 7 7 7 6 5 5 5 4 4 4 4 3 3 3 4 5 6 7 7 8 9 10 10 10 10 10 11 11 11 11 11 12 13 13 13 14 14 14 14
2 2 2 2 2 3 3 3 3 3 3 3 3 3 4 4 4 4 5 5 6 6 7 7 8 8 8 8 9 8 8 6 6 5 5 4 4 4 4 4 4 4 4 4 4 6 7 9 9 10 10 10 11 11 11 11 11 12 12 11 12 12 13 13 14 14 14 14 14
1 2 2 2 2 3 3 3 3 3 3 3 3 3 4 4 4 5 5 5 6 6 7 8 8 8 8 8 8 8 7 6 5 4 4 4 4 4 4 5 5 5 5 5 6 8 9 10 11 11 11 11 12 12 12 11 12 12 13 13 13 13 14 14 14 14 14 14 14
2 2 2 2 2 3 3 3 3 3 3 3 3 3 4 4 4 5 5 6 6 7 7 7 7 8 8 8 8 7 7 6 5 4 4 4 4 4 5 5 6 6 6 6 7 9 10 10 11 11 12 12 13 13 13 12 12 12 13 14 14 14 14 14 14 14 14 14 14
2 2 2 2 3 3 3 3 4 4 4 4 4 4 4 4 5 5 6 6 7 7 7 7 7 7 8 8 7 7 6 6 5 4 4 4 4 5 5 6 6 6 6 5 6 7 7 8 9 10 11 12 12 12 12 12 12 13 13 13 14 14 14 14 14 14 14 14 13
2 3 3 3 3 3 4 4 4 4 4 4 4 4 5 5 5 5 6 7 7 7 8 8 7 7 7 7 7 6 5 5 5 5 5 5 5 5 6 6 6 5 5 5 6 5 5 6 7 8 9 10 11 11 12 12 13 13 13 13 13 14 14 14 14 14 14 14 13
3 3 3 3 4 4 4 4 4 4 4 4 5 5 5 5 5 6 6 7 7 7 8 8 7 6 6 7 6 5 4 4 4 4 5 5 5 6 6 6 6 5 4 6 4 4 4 6 7 8 9 10 11 11 11 12 12 13 13 13 13 13 13 14 14 14 14 13 13
4 4 4 4 4 4 4 4 4 4 5 5 5 5 5 5 6 6 7 7 7 8 7 7 6 6 5 6 6 5 4 4 3 3 4 5 6 7 7 7 6 5 4 6 4 4 6 7 8 8 9 10 11 11 12 12 13 13 13 13 13 13 13 14 14 14 14 13 13
4 4 4 4 4 4 4 5 5 5 5 5 5 5 6 6 6 7 7 7 7 7 7 6 6 5 5 5 5 4 4 4 3 3 4 5 6 7 8 8 7 5 6 6 4 5 7 8 9 9 10 10 10 11 12 12 12 12 12 11 12 12 13 13 13 13 13 14 13
5 5 4 4 4 4 5 5 5 5 5 5 5 5 6 6 7 8 8 8 7 7 6 5 5 5 5 6 5 4 4 4 3 3 4 5 6 7 8 9 8 5 7 7 5 6 8 9 9 10 11 11 10 10 10 11 11 11 11 10 11 12 12 12 12 13 13 13 13
5 5 5 5 5 5 5 5 5 5 5 5 5 6 6 7 7 8 8 8 7 7 6 5 5 6 6 6 5 5 4 3 3 3 5 6 7 8 9 9 8 5 7 7 6 7 8 9 10 11 12 13 12 11 11 11 11 11 10 10 11 12 13 13 14 14 14 13 13
6 6 5 5 5 5 5 5 5 4 5 5 5 6 7 7 8 7 7 7 7 7 6 6 6 7 7 6 5 5 4 4 4 4 5 6 8 8 9 9 9 5 6 7 6 7 8 10 10 11 12 14 13 12 11 12 11 11 10 10 12 13 14 13 13 14 14 14 13
6 6 6 6 5 5 5 5 4 5 5 6 6 7 7 7 7 7 7 7 7 7 7 6 6 6 6 6 5 5 5 4 4 4 5 6 8 8 9 10 7 5 6 6 6 7 9 10 11 12 13 14 13 13 13 12 12 11 11 12 13 14 14 13 12 13 14 14 13
6 6 6 6 6 6 5 4 4 5 6 6 7 7 7 7 7 7 7 6 6 6 7 6 6 6 6 6 6 6 5 4 4 5 5 6 8 8 9 10 6 5 7 5 6 7 9 10 11 12 14 15 14 13 13 12 11 10 10 11 12 13 14 14 13 13 13 13 12
7 7 7 7 6 6 5 5 5 6 7 7 7 7 7 7 7 7 6 5 5 6 6 5 5 5 5 5 6 6 5 4 4 5 6 7 8 9 9 10 5 5 7 5 5 7 9 10 11 13 14 15 13 12 12 12 11 10 11 12 12 12 13 13 13 13 13 13 11
7 7 7 7 6 6 5 5 6 7 7 7 7 7 7 7 7 7 6 5 5 5 5 4 3 3 4 4 4 5 4 4 5 5 6 7 8 9 9 10 6 5 8 5 5 7 8 10 12 13 14 14 11 11 11 12 11 11 12 12 12 13 13 12 12 12 12 11 11
7 7 7 7 6 6 6 7 7 7 7 7 7 7 7 7 7 6 5 4 5 5 5 4 3 3 3 4 4 4 4 4 5 5 6 6 7 8 9 11 8 4 6 4 4 6 8 10 12 13 14 12 10 9 10 10 10 10 11 12 12 13 13 12 11 11 11 10 10
7 7 7 7 7 7 7 8 7 7 7 7 7 7 7 7 6 5 4 4 5 5 5 4 4 3 4 4 4 4 4 5 5 5 5 6 7 8 9 10 9 5 3 4 4 6 8 10 11 13 13 11 10 9 9 9 8 9 10 11 11 12 12 11 11 10 10 10 10
7 7 7 7 8 8 8 8 7 7 7 7 7 7 6 6 6 5 4 4 5 5 5 5 4 4 4 5 5 5 5 5 4 5 5 6 6 7 8 10 10 7 4 4 3 5 8 10 11 12 12 10 10 9 8 8 8 9 9 10 10 11 11 10 9 9 9 10 10
6 7 7 8 8 8 8 8 7 7 7 7 7 7 6 6 5 4 4 4 5 5 5 5 5 4 4 4 5 5 4 4 3 3 4 5 5 6 7 9 9 7 4 3 3 4 7 9 10 12 12 10 9 8 7 7 8 9 9 9 9 10 10 9 8 8 9 10 11
6 7 8 9 9 8 8 8 7 7 7 7 7 6 6 6 5 4 4 4 5 5 5 5 5 4 4 4 5 5 5 4 3 3 3 4 4 4 5 7 8 7 5 2 2 4 6 8 10 11 11 9 8 7 7 7 8 9 9 9 9 9 9 9 8 8 8 9 9
6 7 8 9 9 8 8 8 7 7 7 6 6 6 5 5 5 5 5 5 5 5 5 4 4 4 4 4 4 5 5 5 4 3 3 3 3 3 4 6 7 7 6 3 2 4 6 8 9 10 11 9 8 7 7 7 8 9 9 10 9 9 9 9 8 8 8 8 8
Wind_Direction
50 50 48 41 30 24 24 29 21 5 354 360 358 357 353 347 345 344 343 342 341 340 338 336 334 334 335 337 335 332 328 327 326 324 320 317 324 330 333 333 336 338 339 342 345 353 3 11 14 26 44 44 47 64 65 30 326 311 309 314 314 313 310 307 307 308 308 306 308
47 47 47 45 34 27 24 22 19 12 7 10 2 356 352 349 346 343 342 343 343 342 340 336 334 336 338 339 337 334 332 331 329 326 322 321 328 333 335 335 340 344 346 348 352 358 5 7 4 3 1 347 325 328 85 141 278 291 299 305 308 309 308 305 309 310 309 306 309
46 43 41 38 33 29 25 20 15 13 13 13 6 358 354 352 347 344 342 342 344 346 345 339 338 340 342 341 340 339 337 337 334 330 327 327 333 337 339 340 342 348 354 357 359 0 358 351 347 341 333 326 322 319 313 289 288 295 303 309 311 311 309 309 312 311 308 306 309
48 44 39 35 30 28 26 20 15 13 12 9 3 360 358 355 350 344 341 340 346 350 351 345 342 344 346 343 342 342 343 343 337 331 328 330 336 340 343 343 342 348 358 1 1 357 349 336 330 325 322 320 317 316 317 317 310 306 305 309 308 306 306 308 310 310 309 307 308
51 48 43 38 32 29 26 23 16 12 10 6 1 0 0 357 351 346 343 344 351 356 355 350 347 347 347 344 344 345 345 346 337 332 331 335 340 344 346 343 341 346 354 356 352 345 336 325 320 317 318 317 312 309 305 304 301 300 300 300 299 298 301 303 305 305 305 303 303
51 49 47 42 35 32 29 23 17 11 5 2 3 3 3 358 353 350 349 349 353 355 354 353 350 349 347 347 347 346 345 344 341 340 340 340 343 345 345 339 339 340 339 336 331 325 320 317 312 312 312 308 302 297 294 292 294 297 299 300 301 302 302 302 302 301 301 300 302
49 46 44 42 36 32 27 20 14 7 360 2 8 8 4 358 354 352 350 351 352 352 352 354 353 350 348 348 348 347 346 345 345 345 346 344 346 345 341 332 325 319 313 311 308 307 307 308 305 303 300 295 293 294 298 302 304 306 307 309 311 311 309 308 305 302 301 300 303
50 46 42 40 35 30 24 16 9 360 356 0 8 8 4 358 353 350 349 351 351 350 349 353 353 350 347 347 347 347 345 344 344 345 346 345 344 340 332 318 307 300 298 299 301 304 306 305 302 301 301 300 301 307 313 317 315 313 312 312 311 310 309 308 307 305 304 304 304
50 46 42 39 33 26 18 9 4 356 352 359 4 5 3 357 350 348 348 351 349 345 345 351 350 347 345 344 344 344 344 343 343 343 342 341 337 331 322 311 304 302 303 307 311 315 316 314 312 312 314 316 318 322 324 324 320 316 314 311 309 310 310 310 309 308 306 305 303
47 43 39 36 30 21 9 356 359 353 347 351 355 359 359 353 349 348 348 348 341 340 343 349 346 343 341 341 341 342 342 341 340 338 337 335 330 325 319 313 312 314 318 323 325 325 325 323 323 325 326 325 327 328 329 327 323 319 317 313 313 313 313 312 310 309 307 305 303
46 41 36 31 22 12 360 349 353 353 348 346 347 348 349 349 353 351 347 344 337 339 343 347 343 340 338 339 339 339 339 339 339 337 334 331 327 323 320 318 321 324 328 333 333 331 329 329 330 332 334 333 333 333 333 331 326 322 319 317 316 315 314 312 312 310 308 306 305
45 40 34 26 15 5 356 352 355 356 354 347 345 343 344 351 357 352 345 343 339 339 342 344 340 337 336 336 337 336 336 337 337 334 331 328 325 323 323 324 328 331 334 338 338 335 334 337 339 339 339 339 337 337 336 334 329 325 321 319 318 317 316 315 315 313 311 310 308
44 36 28 20 8 360 356 356 356 356 354 348 346 343 343 349 356 352 346 344 341 340 340 340 335 333 333 335 335 335 334 334 332 330 327 326 326 327 329 332 335 337 339 345 346 346 345 350 349 347 344 342 339 338 337 334 329 325 322 321 320 319 318 317 316 314 313 312 310
45 33 20 10 360 357 358 358 358 356 352 346 346 342 341 342 357 356 349 345 342 340 337 334 331 331 333 334 333 333 332 329 326 324 323 325 329 333 336 338 341 344 348 357 1 0 359 1 358 352 346 340 337 335 333 330 326 323 321 321 320 319 318 316 316 314 313 312 309
47 30 12 359 354 355 358 357 356 353 350 345 346 342 339 342 359 359 351 342 340 337 335 332 330 330 332 333 331 330 327 324 321 321 322 327 333 338 342 344 349 353 359 6 7 6 4 3 358 350 342 336 332 329 328 325 323 322 322 321 320 318 317 316 316 315 313 311 308
39 20 2 351 351 354 355 354 353 351 348 345 346 343 341 345 355 355 348 339 336 335 335 333 329 329 330 331 330 327 323 320 320 321 325 330 336 341 346 349 357 2 3 0 360 359 360 0 353 344 337 331 327 325 325 325 325 324 322 321 320 318 317 316 316 314 312 310 307
24 6 352 345 348 351 351 349 347 347 346 344 342 342 344 348 348 346 342 337 335 334 333 332 328 328 328 329 328 325 321 320 321 324 327 332 336 339 344 351 359 0 356 348 346 347 349 354 347 339 333 328 325 325 326 327 325 324 322 321 319 317 316 315 314 313 311 309 307
3 352 344 340 343 346 347 342 340 339 340 339 338 341 344 347 341 337 335 336 335 331 329 328 327 327 327 327 326 324 322 320 322 324 327 329 329 331 336 344 348 349 345 338 339 341 344 346 342 336 331 327 325 326 326 326 324 322 321 319 317 316 315 314 313 312 311 310 308
345 343 341 338 338 339 337 332 329 330 331 332 334 336 338 341 335 331 329 333 332 329 326 325 327 327 327 326 325 323 321 319 320 321 322 322 321 322 328 335 335 333 331 330 336 339 341 342 339 335 330 328 326 325 324 323 322 321 320 318 316 315 315 314 314 312 311 310 309
332 337 338 337 331 328 325 321 319 319 320 323 326 329 330 332 328 326 327 330 330 327 325 325 327 327 326 325 324 322 320 317 318 318 316 315 315 319 324 326 321 316 314 320 334 340 341 340 337 334 330 327 324 323 322 321 320 319 318 316 315 315 315 314 313 312 311 310 309
317 325 328 324 320 317 316 312 307 306 306 310 316 320 322 321 321 323 326 327 326 325 325 327 327 326 325 324 324 323 321 317 314 312 311 310 313 317 319 316 310 306 308 321 339 344 343 340 337 333 329 324 321 321 321 321 319 318 317 316 316 315 315 314 313 312 311 310 309
301 307 308 303 305 306 304 300 296 295 297 303 310 312 312 311 316 321 324 324 325 326 328 329 325 324 323 324 324 323 319 314 307 303 302 304 307 309 308 303 302 305 315 333 347 349 346 341 336 331 327 323 320 320 321 321 318 317 316 316 316 316 315 314 313 312 311 311 310
286 291 289 285 289 290 288 288 288 291 295 299 303 303 304 307 313 318 321 324 326 328 328 324 320 320 321 323 322 319 314 306 297 291 291 295 299 301 301 299 303 313 327 350 359 355 348 340 334 330 327 324 322 321 321 320 317 316 316 316 316 315 314 313 312 312 311 311 311
269 279 285 289 289 285 284 286 290 294 297 299 301 301 302 307 313 317 321 325 326 325 321 314 313 316 320 320 318 314 308 301 295 290 288 289 296 302 306 307 314 325 342 11 19 8 353 339 334 330 328 325 323 322 321 318 316 315 315 315 314 313 312 311 312 311 312 312 311
251 265 275 285 287 288 289 292 295 297 300 300 299 300 303 309 314 319 322 324 321 316 311 307 310 316 319 316 314 310 303 295 294 293 292 292 301 308 313 315 323 333 353 32 42 24 355 337 332 329 326 324 322 320 318 315 314 314 314 313 311 311 310 310 311 311 312 313 313
247 255 263 273 281 287 291 295 296 296 295 295 296 300 306 312 317 320 320 316 311 307 306 307 314 317 315 308 309 306 299 287 285 287 292 299 308 314 318 320 325 339 10 49 44 16 342 330 326 323 321 319 319 317 315 313 313 312 311 309 309 309 309 310 311 313 314 314 314
248 255 263 273 281 288 293 298 294 292 290 293 298 304 310 317 319 316 311 304 303 304 306 309 315 312 305 300 305 305 299 289 281 282 290 302 311 316 319 320 324 347 29 55 33 353 329 322 322 321 320 318 317 316 314 312 312 311 309 308 308 309 310 311 313 315 316 316 315
250 258 268 275 282 290 296 296 293 292 294 298 303 309 313 315 310 304 299 298 302 306 308 311 313 309 304 305 311 309 300 287 280 280 289 302 312 316 319 321 326 3 47 54 18 343 328 323 324 325 325 322 317 313 311 310 310 310 309 308 309 310 311 313 315 316 317 317 317
251 258 266 274 283 291 294 293 294 296 300 303 306 308 308 305 299 296 297 302 307 310 312 315 313 309 307 311 315 308 293 273 274 284 299 310 315 318 320 322 324 6 53 56 13 342 330 327 328 329 330 327 319 314 311 310 309 309 309 309 311 313 315 317 317 318 318 318 319
249 254 261 270 279 285 289 291 296 299 301 301 303 302 298 293 293 296 301 308 311 313 314 313 309 307 308 312 311 304 292 279 283 297 310 318 320 321 322 323 324 359 47 51 12 345 335 331 331 331 331 329 321 314 309 307 307 307 308 309 312 314 316 317 318 318 319 321 323
250 254 260 266 273 278 283 289 293 294 295 296 294 291 288 288 294 300 306 311 313 312 309 304 303 305 307 310 308 304 300 300 303 311 317 320 320 320 321 320 323 355 46 49 12 348 338 334 332 332 331 329 320 312 306 304 305 306 308 311 314 317 318 319 320 321 322 324 325
250 254 259 264 267 272 278 284 287 289 289 287 283 283 285 290 297 303 308 311 311 308 304 301 303 305 308 311 310 308 307 308 311 316 318 318 317 318 319 316 326 10 54 48 12 350 340 335 333 332 330 327 317 309 304 302 304 307 310 313 316 318 321 323 323 323 324 325 324
249 254 258 262 265 269 273 277 279 279 278 276 277 281 287 293 298 302 305 308 308 306 304 303 307 310 313 317 316 314 313 314 313 312 312 311 313 317 317 312 333 40 68 46 12 350 340 335 333 332 330 325 315 307 304 305 308 312 315 317 319 321 323 325 325 324 324 323 322
246 250 255 258 262 265 268 270 269 269 269 271 276 281 287 293 297 300 303 309 307 303 300 301 307 311 315 319 317 316 316 316 309 308 309 312 314 317 317 311 337 57 77 46 12 350 339 335 334 332 329 322 313 307 308 313 315 317 318 318 320 323 325 326 324 323 322 321 319
242 245 250 255 259 262 263 264 264 265 267 272 277 282 286 290 294 298 304 309 301 294 291 294 301 307 311 313 314 314 312 306 303 306 310 313 314 316 315 311 334 53 81 53 13 350 339 335 335 333 328 320 313 311 315 320 320 320 320 320 321 323 324 324 322 321 320 318 317
241 243 246 251 254 256 257 259 263 266 270 274 278 281 284 288 292 297 301 301 290 285 284 287 291 298 305 314 314 310 304 298 301 304 307 310 310 313 315 313 330 29 80 60 16 350 339 336 336 333 328 319 317 319 323 324 322 320 320 320 321 322 323 323 321 319 318 317 318
242 241 242 244 246 249 253 257 263 268 272 275 277 280 284 289 291 294 295 290 283 282 283 287 291 301 314 322 319 314 309 306 307 307 307 307 309 314 317 317 326 348 51 65 19 351 340 337 337 334 329 322 323 325 326 324 321 319 319 320 320 322 323 322 320 318 317 317 319
242 238 236 237 242 247 252 258 263 268 272 274 277 280 284 288 289 290 288 279 279 282 287 291 298 308 320 325 319 314 309 304 305 306 307 307 312 318 320 320 323 330 359 61 23 352 340 337 337 335 331 325 327 327 325 321 318 318 318 320 320 322 323 322 320 318 317 318 318
242 236 234 235 241 247 252 257 262 265 269 273 276 279 283 287 289 291 287 274 275 281 288 295 301 310 318 319 312 307 303 297 297 299 303 308 318 322 321 317 318 323 340 57 29 354 341 337 337 335 332 326 328 327 322 317 315 316 317 319 319 321 322 321 319 317 315 315 314
241 236 235 237 242 246 252 257 262 266 269 273 276 279 283 288 290 287 278 265 266 272 282 292 299 307 313 312 306 306 305 303 297 296 303 310 321 315 305 304 309 314 325 42 34 358 342 336 336 334 332 328 329 326 319 313 313 315 317 320 321 322 321 321 319 316 314 313 312
240 238 237 238 241 245 250 257 264 268 271 273 275 279 284 287 282 274 266 259 261 267 277 288 296 302 305 301 300 306 311 311 308 309 311 308 310 293 281 292 301 307 315 343 10 358 342 335 334 333 333 331 329 323 316 312 313 316 319 323 323 322 320 318 317 315 313 313 314